Wind_Speed
82 81 78 75 71 68 66 66 66 66 67 68 68 68 69 70 70 71 72 73 74 74 75 76 77 77 78 78 79 80 81 81 81 81 82 82 82 83 84 86 88 89
81 77 73 69 66 65 65 65 66 67 67 68 69 70 70 71 72 73 74 75 76 76 77 78 79 79 80 80 81 82 82 82 82 83 84 84 84 85 86 88 90 92
76 71 67 65 64 64 64 65 66 67 68 69 70 71 71 72 73 74 75 76 77 78 79 80 80 81 82 82 83 83 83 83 84 85 86 87 87 88 89 90 92 94
69 66 64 63 64 65 66 67 68 69 69 70 71 72 74 75 75 76 77 78 79 80 81 81 82 83 83 84 85 85 85 85 85 87 88 89 89 90 92 93 94 96
64 63 64 64 66 67 68 68 69 70 72 73 74 75 76 77 77 78 79 80 81 82 82 83 84 84 85 86 87 87 87 87 87 88 90 90 90 91 94 95 97 98
63 63 64 66 67 68 69 70 72 73 74 75 76 77 78 78 79 79 80 81 82 83 83 84 85 86 87 88 88 89 89 89 88 89 90 90 90 92 94 96 99 99
63 64 65 67 68 69 71 72 74 75 76 76 77 78 79 79 80 81 82 82 83 84 85 86 87 88 89 90 90 90 90 90 90 90 90 90 91 92 94 96 98 98
64 66 67 69 70 72 73 74 75 76 77 78 78 79 80 81 82 82 83 84 85 86 87 88 89 90 91 92 92 91 91 91 91 91 91 91 91 92 93 94 94 94
66 68 69 71 72 73 75 76 77 78 79 79 80 80 81 82 83 84 84 85 86 88 89 91 92 93 94 94 94 93 93 92 92 92 92 92 92 92 91 89 89 88
69 70 71 73 74 75 76 78 78 79 80 81 82 82 82 83 84 85 86 87 88 90 92 93 95 95 96 95 96 96 96 95 94 94 94 93 92 90 86 82 82 81
71 72 73 75 76 77 79 80 81 82 83 83 84 84 84 85 85 87 88 90 92 93 95 96 97 98 98 97 98 98 99 98 97 96 95 93 90 85 79 76 76 75
74 75 77 78 79 80 81 82 83 84 85 85 85 86 86 86 87 89 91 93 95 97 98 99 99 100 100 100 100 100 101 100 99 97 94 91 85 78 73 71 72 72
77 78 80 80 81 82 83 84 84 85 86 86 86 87 88 89 90 92 94 96 98 99 100 101 101 102 102 102 102 102 102 101 99 96 91 85 78 72 69 69 69 69
79 80 81 82 82 83 84 84 85 85 86 87 87 89 90 92 94 96 97 99 100 101 102 103 104 104 104 105 104 103 102 100 96 91 85 79 72 67 66 66 66 66
79 80 81 81 82 83 84 84 85 86 86 88 89 92 94 96 98 100 101 101 102 103 104 105 105 106 106 106 105 102 99 95 90 84 78 73 68 64 63 63 64 62
79 79 80 81 82 82 83 84 85 86 88 90 92 95 97 99 101 102 103 104 105 105 105 106 107 107 106 104 101 97 92 86 81 76 72 68 64 61 60 60 60 58
78 78 79 80 82 83 84 85 87 89 91 93 95 97 99 101 103 104 105 106 107 107 107 107 107 105 102 97 92 87 82 78 73 68 66 63 60 57 57 57 56 55
78 78 79 80 82 84 85 87 90 92 94 96 98 99 101 103 105 106 107 108 109 109 108 106 103 98 91 86 81 77 73 70 66 62 60 58 56 54 53 53 53 52
78 79 80 82 84 86 88 90 92 94 96 99 100 102 103 105 106 107 108 109 108 107 104 99 93 86 81 76 72 68 65 62 60 58 56 53 52 50 49 49 50 50
80 81 82 84 86 88 90 92 95 97 99 101 103 104 105 106 107 107 107 105 102 99 94 88 82 76 71 67 64 60 58 57 55 54 51 48 46 46 46 46 47 47
82 83 84 86 89 91 93 96 98 100 102 103 104 105 106 106 106 104 101 96 92 88 84 79 72 66 62 59 57 54 52 51 50 49 47 44 42 43 43 43 44 45
84 86 87 90 92 95 97 98 100 101 103 104 104 104 104 102 99 96 91 87 83 79 75 69 62 57 54 53 51 49 47 46 45 44 43 40 39 40 40 40 42 44
88 90 92 94 95 97 99 100 101 102 102 103 102 101 97 93 89 86 82 79 74 69 64 59 54 50 49 48 46 44 42 41 41 40 39 38 37 38 38 38 40 42
92 94 96 97 98 99 100 100 100 100 98 97 96 93 89 84 81 78 73 69 65 61 57 53 48 45 44 43 41 39 37 37 37 37 36 35 35 35 35 37 38 40
95 97 97 98 99 99 98 98 96 94 92 89 87 85 82 78 74 70 64 60 58 55 52 48 43 39 38 38 36 34 33 33 33 33 33 32 32 33 34 35 36 37
96 97 97 97 97 96 94 92 90 88 85 83 80 78 74 70 66 62 58 55 53 50 46 43 38 34 32 32 31 29 29 30 30 30 30 30 30 31 32 33 34 35
Wind_Direction
293 292 291 289 286 284 281 280 279 279 279 279 279 279 279 280 280 281 282 282 283 283 284 284 284 284 284 284 284 283 283 282 281 280 279 279 278 278 279 279 279 279
292 290 287 284 282 280 279 279 279 279 279 279 280 280 281 281 282 283 283 284 284 285 285 285 286 286 286 285 285 284 283 283 283 282 282 281 280 280 280 280 279 279
289 286 283 280 279 278 278 279 279 279 279 279 280 281 282 282 283 284 285 285 286 286 286 286 286 287 287 286 286 285 284 284 284 284 283 283 282 282 281 280 280 280
284 281 279 278 278 278 278 279 279 279 280 280 281 282 282 283 284 285 285 286 287 287 287 287 287 287 288 287 287 286 286 285 285 284 284 284 284 283 282 281 281 280
279 277 277 277 278 278 279 279 279 280 280 281 282 282 283 284 285 286 287 288 288 288 288 288 288 289 289 288 288 287 286 286 285 284 284 284 284 284 284 283 283 282
277 276 277 278 279 279 280 280 281 281 281 282 283 284 285 286 287 288 288 288 288 289 289 289 290 290 290 289 289 288 287 286 285 284 284 284 285 285 285 286 285 283
277 278 279 280 281 281 281 281 281 282 282 283 284 286 286 287 287 288 288 288 288 289 290 290 291 291 291 290 289 288 287 287 286 286 285 285 285 286 287 287 285 283
279 280 281 281 282 282 282 282 283 283 284 285 286 286 287 287 288 288 288 289 289 290 291 291 292 292 292 291 290 289 288 288 287 287 287 287 287 288 287 286 283 280
280 281 282 282 283 283 283 284 284 284 285 286 286 286 287 288 288 289 289 290 291 291 292 292 292 292 292 292 291 291 290 289 289 289 289 289 289 289 287 283 278 276
281 282 283 284 284 284 284 284 285 285 285 286 286 286 287 288 288 289 290 291 292 292 293 293 293 293 293 292 292 292 291 291 290 290 290 290 289 287 283 278 273 272
283 284 285 285 285 285 285 285 285 285 285 286 286 286 287 288 289 290 291 292 293 294 294 294 294 294 293 293 293 292 292 292 291 291 291 290 288 284 278 272 269 268
286 286 286 286 286 286 286 286 285 285 285 286 286 287 288 289 290 291 292 293 294 294 295 295 294 294 294 293 293 292 292 292 291 291 290 288 284 279 273 268 267 266
287 287 287 287 287 287 286 286 286 286 286 286 287 288 290 291 292 292 293 294 295 295 295 295 294 294 294 293 293 292 292 291 290 289 287 284 279 273 268 266 264 263
289 288 288 288 288 288 287 287 287 287 287 288 289 290 292 292 293 294 294 294 295 295 295 295 294 294 294 293 292 292 291 290 288 286 283 279 274 269 266 264 261 260
290 290 290 290 290 289 289 289 289 289 289 290 291 292 293 294 295 295 295 295 295 295 295 294 294 294 293 293 292 291 289 287 285 282 278 274 270 266 263 261 258 256
293 292 292 292 292 292 292 292 292 292 292 292 293 294 295 295 296 296 296 296 295 295 294 294 294 294 293 292 291 289 287 284 281 277 273 270 266 263 260 257 254 253
295 295 295 295 295 295 294 294 294 294 294 295 295 296 296 296 297 297 296 296 296 295 295 295 294 294 292 291 289 286 284 280 277 273 270 266 263 260 257 253 251 250
298 297 297 297 297 297 296 296 296 296 296 297 297 297 297 297 297 297 297 297 296 296 296 295 294 293 291 289 286 283 280 277 274 270 266 262 259 257 253 249 248 246
300 299 299 299 299 299 298 298 298 298 298 298 298 298 298 298 298 298 298 297 297 297 296 295 294 291 289 287 284 280 277 274 270 267 262 258 257 254 249 245 245 244
302 301 301 301 300 300 300 300 300 300 300 300 300 300 299 299 299 299 299 298 298 297 296 294 292 290 287 284 281 278 274 270 266 263 259 257 254 250 245 243 243 242
303 303 302 302 302 302 302 302 302 302 301 301 301 301 301 301 301 300 300 299 298 296 295 293 291 289 285 282 278 275 271 267 263 260 257 254 249 244 242 241 240 239
304 304 304 304 304 303 303 303 303 303 303 303 303 303 303 302 302 301 300 299 297 295 294 292 290 287 283 279 276 272 267 263 259 256 254 250 244 241 240 238 236 236
306 306 306 305 305 305 305 305 305 305 305 305 304 304 304 303 303 302 300 299 297 295 293 291 289 285 281 276 273 269 264 259 255 252 249 244 241 240 238 234 233 233
308 308 308 307 307 307 307 307 307 307 307 306 306 305 305 305 304 302 300 298 297 295 293 291 288 283 277 273 270 265 260 254 250 247 243 241 240 238 234 231 229 229
310 309 309 309 309 309 309 309 309 308 308 308 307 307 307 306 304 302 300 298 297 295 293 291 286 280 274 269 265 261 254 249 245 241 240 239 237 233 230 228 227 226
311 311 311 311 311 311 311 310 310 310 310 309 309 309 309 307 304 301 301 300 298 295 293 289 285 279 272 265 260 255 248 243 239 238 237 236 232 229 227 225 224 224
Height
5489 5485 5482 5479 5475 5473 5470 5468 5465 5464 5462 5459 5457 5456 5454 5451 5449 5446 5444 5442 5439 5437 5435 5432 5430 5428 5426 5423 5419 5416 5414 5413 5411 5409 5405 5403 5403 5401 5399 5397 5394 5392
5477 5473 5470 5468 5465 5463 5460 5457 5455 5453 5451 5448 5446 5444 5442 5440 5437 5435 5432 5430 5428 5426 5423 5420 5418 5415 5413 5410 5407 5404 5402 5400 5398 5395 5391 5389 5389 5387 5385 5383 5380 5377
5466 5462 5460 5457 5455 5453 5450 5447 5444 5442 5440 5438 5435 5433 5431 5428 5426 5424 5420 5418 5415 5413 5411 5407 5405 5403 5399 5397 5393 5391 5389 5387 5384 5380 5375 5374 5374 5372 5370 5368 5365 5362
5455 5452 5450 5447 5445 5442 5440 5437 5434 5431 5429 5427 5424 5421 5419 5417 5414 5412 5409 5406 5403 5400 5397 5394 5392 5389 5385 5382 5379 5376 5375 5373 5370 5366 5360 5359 5359 5355 5353 5351 5348 5346
5445 5443 5440 5438 5435 5432 5429 5426 5423 5420 5418 5415 5413 5410 5407 5404 5401 5398 5396 5393 5389 5386 5383 5380 5377 5375 5371 5368 5364 5362 5360 5358 5356 5352 5346 5344 5344 5339 5335 5332 5329 5329
5436 5433 5431 5428 5425 5422 5419 5415 5412 5409 5406 5404 5401 5398 5394 5391 5388 5385 5382 5379 5376 5372 5369 5365 5362 5360 5356 5353 5349 5347 5345 5342 5340 5337 5332 5330 5329 5324 5319 5314 5309 5309
5426 5423 5420 5417 5414 5411 5407 5404 5401 5397 5394 5392 5389 5385 5381 5378 5375 5372 5368 5365 5362 5359 5355 5351 5347 5344 5341 5337 5333 5332 5329 5326 5324 5321 5317 5314 5312 5308 5304 5297 5290 5288
5416 5413 5410 5407 5403 5399 5396 5392 5389 5385 5382 5379 5377 5373 5369 5365 5361 5358 5355 5350 5347 5344 5340 5336 5332 5329 5325 5321 5317 5315 5312 5310 5307 5304 5300 5297 5295 5292 5288 5281 5273 5270
5406 5403 5400 5396 5392 5388 5384 5380 5376 5373 5369 5365 5363 5360 5356 5352 5347 5343 5340 5336 5333 5329 5325 5321 5317 5313 5309 5304 5300 5297 5294 5292 5290 5286 5282 5280 5277 5274 5270 5264 5257 5255
5396 5393 5389 5385 5381 5377 5373 5368 5364 5360 5356 5352 5349 5347 5343 5339 5334 5329 5325 5322 5319 5315 5310 5306 5301 5297 5293 5288 5283 5279 5275 5273 5271 5268 5264 5261 5259 5255 5252 5247 5241 5241
5385 5382 5378 5374 5370 5365 5361 5357 5352 5348 5344 5340 5336 5333 5330 5325 5321 5316 5311 5307 5303 5298 5294 5289 5285 5279 5275 5271 5267 5261 5256 5254 5252 5250 5246 5243 5240 5237 5234 5231 5227 5228
5374 5370 5366 5362 5358 5353 5349 5344 5340 5335 5331 5327 5322 5318 5315 5311 5307 5302 5297 5292 5288 5283 5277 5272 5267 5262 5257 5253 5249 5244 5239 5235 5232 5231 5228 5225 5222 5220 5218 5216 5214 5215
5362 5358 5354 5350 5345 5340 5336 5331 5327 5322 5318 5313 5308 5303 5300 5296 5292 5288 5283 5277 5271 5266 5261 5254 5249 5245 5240 5235 5231 5226 5220 5216 5213 5211 5210 5208 5206 5205 5203 5202 5201 5202
5350 5345 5341 5336 5332 5327 5322 5318 5313 5309 5304 5299 5294 5289 5285 5280 5276 5272 5268 5262 5256 5249 5244 5237 5231 5226 5221 5215 5211 5207 5202 5197 5194 5192 5191 5190 5190 5190 5189 5189 5189 5191
5338 5333 5328 5323 5318 5313 5309 5304 5299 5295 5290 5285 5280 5274 5269 5264 5259 5254 5248 5244 5239 5233 5226 5219 5214 5208 5202 5195 5190 5187 5183 5179 5176 5174 5173 5173 5175 5176 5176 5176 5177 5179
5325 5320 5315 5310 5305 5300 5295 5290 5285 5280 5276 5271 5265 5259 5253 5247 5242 5236 5230 5223 5219 5215 5209 5202 5195 5189 5182 5175 5170 5165 5163 5161 5159 5158 5157 5158 5160 5162 5163 5164 5166 5169
5313 5308 5303 5297 5291 5286 5281 5276 5271 5265 5260 5255 5250 5244 5238 5231 5224 5218 5212 5204 5197 5194 5190 5183 5176 5169 5162 5156 5151 5146 5143 5142 5142 5143 5143 5144 5146 5148 5151 5153 5156 5159
5300 5296 5291 5285 5278 5273 5268 5262 5256 5250 5244 5238 5234 5228 5221 5214 5207 5199 5193 5185 5177 5172 5168 5162 5156 5149 5143 5138 5134 5130 5127 5125 5126 5128 5129 5131 5133 5136 5140 5142 5145 5149
5288 5283 5278 5272 5266 5260 5254 5248 5241 5235 5229 5222 5217 5211 5204 5196 5189 5181 5173 5165 5156 5150 5146 5141 5136 5130 5125 5121 5118 5116 5114 5112 5112 5114 5116 5119 5123 5126 5130 5133 5136 5139
5276 5271 5265 5259 5253 5246 5240 5233 5226 5220 5213 5206 5199 5193 5186 5178 5170 5162 5154 5146 5136 5129 5125 5122 5118 5113 5110 5106 5104 5103 5102 5100 5100 5102 5105 5109 5113 5117 5120 5124 5127 5130
5264 5259 5253 5246 5239 5232 5225 5218 5211 5203 5196 5188 5181 5174 5166 5158 5150 5141 5134 5128 5119 5111 5107 5105 5102 5098 5096 5093 5091 5091 5090 5089 5090 5093 5096 5101 5105 5108 5112 5116 5119 5122
5250 5245 5240 5233 5225 5217 5210 5203 5195 5187 5179 5170 5163 5156 5147 5138 5130 5122 5114 5108 5103 5096 5091 5090 5088 5085 5083 5081 5080 5079 5079 5080 5082 5085 5089 5093 5096 5099 5104 5108 5111 5115
5236 5230 5224 5218 5210 5201 5194 5186 5179 5171 5162 5153 5144 5137 5131 5122 5114 5106 5097 5091 5087 5082 5078 5077 5077 5074 5072 5070 5069 5070 5071 5072 5075 5078 5082 5086 5089 5092 5097 5101 5104 5108
5221 5214 5207 5200 5193 5185 5176 5168 5161 5154 5146 5136 5127 5119 5114 5107 5099 5091 5085 5078 5073 5070 5067 5066 5066 5064 5062 5061 5061 5062 5063 5065 5068 5072 5075 5079 5083 5087 5091 5095 5098 5102
5206 5199 5191 5183 5176 5168 5159 5150 5143 5137 5130 5121 5112 5104 5098 5092 5084 5077 5073 5068 5063 5060 5057 5056 5056 5055 5054 5053 5054 5055 5057 5060 5063 5067 5070 5074 5077 5081 5085 5089 5093 5096
5193 5184 5176 5167 5159 5152 5145 5136 5127 5120 5114 5107 5100 5093 5086 5079 5071 5065 5063 5060 5055 5052 5049 5048 5048 5048 5048 5048 5049 5050 5053 5055 5059 5062 5066 5069 5073 5076 5080 5084 5088 5091